Lid_Strength_Index
8 11 13 12 10 11 12 14 14 13 10 11 12 11 10 9 10 10 10 9 8 7 6 6 5 5 2 2 2 2 3 3 3 3 3 2 3 2 3 3 2 2 1 1
11 13 10 10 10 11 12 13 14 12 10 11 12 12 11 10 9 10 10 10 8 8 7 6 6 6 3 2 2 2 3 3 3 3 3 2 2 2 2 3 3 2 2 1
12 12 8 9 11 13 13 13 14 14 12 11 12 13 12 11 10 10 9 9 8 8 7 7 6 6 6 3 2 2 2 3 3 3 3 4 4 4 4 3 3 3 2 1
11 9 10 11 12 11 15 10 11 12 14 17 12 18 15 14 12 11 10 9 9 8 8 7 7 6 7 5 3 1 1 2 3 3 3 4 4 4 4 3 3 3 3 3
13 12 12 12 11 10 12 9 11 12 14 15 15 17 18 14 14 12 10 10 9 8 8 8 7 7 6 6 5 2 1 1 2 3 3 3 4 3 3 4 4 4 3 3
11 9 9 11 10 9 9 11 12 13 14 18 15 16 17 15 14 12 10 9 9 8 8 8 8 8 7 7 6 3 2 2 2 3 3 3 3 3 3 4 4 4 3 3
12 11 10 9 12 10 11 13 19 20 20 19 15 16 15 15 13 12 12 10 10 9 9 9 9 8 8 7 6 6 2 2 2 3 3 3 3 3 3 3 4 4 4 4
16 17 12 10 11 13 12 13 19 24 21 19 16 18 15 12 10 10 10 9 9 9 9 9 8 7 7 7 7 6 5 2 2 2 3 3 3 2 2 3 3 3 4 3
15 15 10 10 9 9 13 15 12 17 18 21 18 16 13 12 12 11 10 10 10 10 9 9 10 10 10 9 9 9 7 6 4 2 2 3 3 3 2 2 2 3 3 3
12 16 11 10 9 9 11 10 16 15 21 22 18 18 16 14 12 11 10 11 11 10 10 10 10 10 10 10 9 9 8 8 7 6 4 1 1 2 2 2 2 2 2 2
10 12 14 11 13 13 13 14 14 14 15 20 21 17 13 12 11 10 10 11 11 11 11 10 10 10 10 9 9 8 8 8 8 7 7 6 4 2 1 1 2 2 1 2
10 13 16 14 9 8 10 12 12 17 18 16 17 16 11 11 10 10 10 10 9 9 9 10 10 11 10 10 10 10 9 9 8 8 8 7 6 5 3 2 1 1 1 1
10 14 18 16 13 11 12 11 11 12 13 17 19 17 10 10 10 10 10 10 9 8 9 9 9 10 11 11 11 11 10 10 9 9 9 8 8 7 6 5 4 1 1 1
8 12 15 16 15 13 15 13 12 12 16 16 15 13 12 11 10 10 10 10 9 8 8 8 9 9 9 9 10 10 10 10 10 10 10 9 9 9 8 7 6 5 3 1
9 14 13 13 12 12 12 13 12 14 13 15 13 13 11 10 10 10 9 9 9 10 10 10 10 10 10 10 10 10 10 10 10 10 10 11 10 9 9 9 8 6 5 4
9 15 13 15 12 13 13 12 12 12 12 12 12 12 9 9 9 10 10 10 10 10 10 11 11 10 11 11 11 10 10 10 10 10 11 10 11 10 11 11 10 9 8 6
12 13 15 17 13 15 17 13 12 12 10 11 14 11 10 10 10 9 10 10 10 11 11 11 11 11 11 11 11 12 11 10 11 11 10 11 11 11 12 12 11 11 10 8
12 13 13 17 15 21 13 11 9 11 10 9 9 9 9 9 10 10 10 11 12 12 12 12 13 13 12 12 13 12 12 12 12 11 11 12 13 13 12 12 12 12 10 10
10 12 15 17 17 15 13 13 11 12 13 10 9 10 10 11 12 13 12 12 13 14 14 14 14 13 14 14 14 13 13 13 13 13 13 13 13 13 13 12 11 12 12 11
10 10 14 16 19 20 14 14 14 10 15 16 14 11 11 10 13 14 14 14 15 15 15 16 15 15 16 16 14 15 15 15 15 15 14 13 12 12 11 11 11 11 11 11
14 14 16 16 17 17 17 18 14 16 16 18 18 17 12 14 15 16 15 17 16 17 17 17 17 17 17 16 17 17 17 17 16 15 13 13 12 12 11 11 10 10 11 11
15 16 16 15 17 19 20 16 15 17 19 19 21 20 18 18 17 17 18 18 18 19 18 18 19 18 17 17 18 18 18 18 17 15 15 15 12 12 11 11 10 10 10 10
15 18 19 19 20 21 20 21 19 19 21 21 21 21 20 19 19 20 20 19 19 20 19 20 20 20 19 19 19 20 20 19 18 18 18 16 13 12 11 11 11 10 10 10
18 20 19 19 21 22 22 20 21 21 22 21 22 21 21 21 20 20 20 20 21 21 21 21 21 21 21 20 21 21 20 19 20 20 19 17 14 13 12 12 11 10 10 10
25 22 21 22 22 22 22 23 22 22 22 22 22 22 22 22 22 22 22 22 22 22 22 22 22 22 23 22 22 22 21 20 20 20 19 18 16 14 13 12 11 11 10 9
26 28 25 24 24 23 24 23 23 24 24 24 23 23 23 23 24 24 24 24 24 24 24 24 24 25 25 24 24 24 22 22 22 22 21 20 18 16 14 13 13 10 9 9